Theta_e
336 335 335 334 333 333 332 331 329 327 326 325 323 321 320 319 319 318 317 315 313 311 310 310 310 310 310 310 310 310 310 309 309 309 308 308 308 307 307 307 306 306
336 335 334 333 333 332 331 331 329 328 326 324 323 321 320 320 319 317 316 315 313 310 310 310 309 309 309 309 308 308 308 308 308 308 307 307 307 307 306 306 306 305
336 334 334 333 333 332 331 330 329 328 326 324 323 322 321 319 318 317 316 315 312 310 310 309 309 309 308 307 306 306 306 306 306 306 305 306 306 306 305 304 304 303
336 335 334 333 332 332 331 330 329 328 326 324 323 322 321 318 317 316 315 314 312 310 309 309 309 308 307 306 305 305 305 305 305 304 304 305 305 305 305 305 304 303
336 335 334 333 332 331 330 330 329 327 325 324 323 322 319 317 317 316 314 312 311 309 309 310 309 308 306 305 303 304 305 305 305 304 303 304 305 305 305 305 304 302
336 335 333 333 332 331 330 330 329 327 325 323 322 321 318 317 317 315 313 312 310 309 310 310 308 307 306 304 303 304 304 304 304 304 304 305 305 305 304 304 302 302
335 334 333 333 332 331 331 330 329 327 325 323 322 320 318 318 316 314 313 311 309 310 310 309 308 307 305 304 303 304 304 304 304 304 304 305 305 305 305 305 305 305
335 334 333 333 332 331 331 329 328 326 324 322 321 320 319 317 315 313 312 310 309 309 309 308 308 307 306 304 303 303 304 305 305 304 304 305 305 305 305 306 306 305
335 334 333 333 332 331 330 328 327 325 324 322 321 319 318 316 314 313 311 310 309 309 308 308 308 308 306 304 303 304 305 306 305 304 305 305 305 305 305 304 304 304
334 334 333 332 331 330 329 327 326 324 323 321 320 319 317 315 314 312 311 310 309 309 308 308 308 308 306 304 304 305 305 306 306 305 305 305 305 305 305 304 304 304
333 333 332 332 330 328 328 327 326 324 322 321 320 318 316 315 314 312 311 310 309 309 309 308 308 307 306 306 306 306 306 306 307 306 305 305 305 305 305 305 305 304
333 333 332 331 329 328 327 326 326 325 322 321 320 318 316 315 314 313 311 310 309 309 308 308 308 307 308 308 307 306 306 306 306 306 305 305 305 305 305 305 305 305
332 332 331 330 329 328 326 326 326 325 322 320 319 317 316 315 313 313 311 310 309 308 308 309 308 308 309 308 306 306 306 306 306 305 305 305 305 305 306 305 305 305
332 331 330 329 328 327 326 325 324 323 321 319 318 316 315 315 313 312 311 310 309 308 308 309 308 308 308 307 306 306 306 306 306 305 305 305 305 305 306 305 305 305
331 331 330 329 327 326 325 324 323 321 319 318 317 316 315 314 313 312 311 310 309 309 308 308 308 308 308 306 306 306 306 305 305 306 305 305 305 305 305 305 305 304
330 330 329 328 327 325 324 323 321 320 318 317 316 315 315 314 313 312 311 310 309 309 308 308 308 308 307 306 306 306 305 305 305 306 305 305 305 305 305 305 304 304
330 329 328 326 325 324 323 322 320 319 318 317 316 315 315 314 313 312 311 310 310 309 309 308 308 308 307 307 306 306 305 305 305 305 305 305 305 305 305 304 303 303
329 328 327 326 325 324 323 321 320 319 318 317 316 315 315 314 313 313 312 311 310 309 309 308 307 307 307 307 307 306 306 305 305 305 305 305 305 305 305 304 303 303
329 327 326 325 324 324 322 321 320 318 317 317 316 315 315 314 313 312 312 311 310 309 309 308 307 307 307 307 307 307 306 305 305 305 305 305 305 305 305 304 304 301
328 327 325 324 324 323 322 320 319 318 317 316 316 315 315 314 313 312 312 311 310 309 308 307 307 307 307 307 307 307 306 306 305 305 305 304 304 305 305 304 304 301
328 327 325 324 323 322 321 320 319 318 317 316 316 315 315 314 313 312 312 311 310 310 308 307 307 307 307 307 307 307 307 306 306 306 305 305 305 305 305 304 304 303
328 326 325 323 322 321 320 320 319 318 317 317 316 315 314 313 312 312 312 311 311 310 309 307 307 307 307 307 307 307 307 307 307 306 305 306 305 305 305 305 304 304
327 326 324 322 322 321 320 319 319 318 317 316 315 315 314 313 312 312 311 311 311 310 309 308 307 307 307 306 306 306 307 307 307 307 306 306 306 306 306 305 305 304
326 325 323 322 321 321 320 319 319 318 317 316 315 315 313 312 312 312 311 311 311 311 310 309 308 307 307 306 305 305 306 307 308 307 306 306 307 307 306 306 305 304
326 324 323 322 321 321 320 319 319 318 317 316 315 314 313 312 312 312 311 311 311 311 310 310 308 307 307 307 305 305 306 307 307 307 306 306 307 307 306 305 305 305
325 323 322 322 321 320 319 319 319 318 316 315 314 314 313 312 312 312 312 311 311 311 310 310 309 307 307 307 306 305 305 306 307 307 306 306 307 306 305 304 305 305
Wind_Speed
30 31 31 31 30 29 28 27 26 25 25 23 21 20 21 20 20 19 18 18 17 17 18 18 18 17 18 18 17 18 18 18 18 17 16 16 15 15 14 13 12 13
29 30 30 30 29 27 26 26 26 26 25 23 21 21 22 21 20 20 19 19 18 19 19 19 19 18 18 18 17 18 18 18 17 17 16 16 16 15 14 13 12 12
30 30 30 29 28 27 27 27 27 27 25 23 22 22 22 21 20 20 20 19 19 20 20 20 19 18 18 18 17 17 17 17 17 16 16 16 15 15 14 12 12 11
31 31 30 29 29 28 29 28 26 26 25 24 24 23 21 22 22 21 20 19 20 21 21 20 20 19 18 17 17 18 17 17 17 16 16 16 15 15 14 13 13 12
32 31 30 29 29 29 29 28 26 27 27 25 25 22 22 24 23 21 20 20 20 22 21 20 19 18 18 18 18 19 18 17 16 16 17 17 16 14 13 12 12 12
32 31 30 30 30 30 29 28 29 30 28 26 24 23 24 25 23 22 21 21 22 23 22 20 19 19 18 19 19 19 18 17 16 16 16 17 15 14 13 12 13 13
33 32 30 30 30 30 29 30 31 30 29 27 25 25 25 24 23 23 22 22 23 23 22 21 20 20 19 20 20 19 18 17 16 15 16 16 14 14 13 12 12 12
33 31 30 30 31 31 30 31 30 29 28 27 27 26 25 24 24 24 23 23 24 24 23 22 21 21 20 20 20 20 19 17 16 16 16 16 15 14 12 11 11 11
33 31 31 32 32 31 31 31 29 27 28 28 27 26 24 25 25 25 24 24 25 25 24 23 22 21 21 20 20 20 20 18 16 16 17 16 15 14 13 11 11 11
33 32 32 33 33 32 32 31 29 27 27 27 26 25 25 25 25 25 25 25 25 25 24 24 23 21 20 20 20 20 20 19 17 16 16 16 15 15 14 12 11 10
33 33 33 34 33 32 31 32 31 28 27 26 25 25 26 26 25 25 25 25 25 25 24 23 22 21 20 20 19 19 19 18 17 16 16 16 14 14 13 12 11 10
34 34 34 34 33 32 30 31 30 28 28 27 26 26 27 27 26 25 24 24 24 24 23 23 21 21 20 20 19 19 18 18 17 16 16 15 14 13 12 11 11 10
34 34 35 34 32 32 31 30 29 29 29 29 28 28 28 28 26 26 25 25 24 24 24 23 22 21 20 20 20 20 19 18 18 17 16 15 14 14 13 11 11 12
34 34 34 33 32 31 31 29 29 30 31 31 30 30 29 28 27 26 26 25 24 24 24 23 23 22 21 21 21 21 20 19 19 18 18 17 16 14 13 13 13 13
33 34 34 33 31 31 31 31 31 32 32 31 31 30 29 27 27 26 26 25 24 24 24 24 23 23 23 23 23 22 21 20 20 20 20 19 17 15 14 14 13 13
33 34 34 34 33 32 31 32 32 32 32 32 31 30 29 27 26 26 26 26 25 25 25 25 24 24 23 23 24 23 22 22 22 20 19 19 18 17 16 14 13 12
33 33 34 34 33 32 32 33 33 32 32 31 31 29 28 27 27 26 26 25 25 26 27 26 25 25 23 23 23 22 22 23 22 20 19 19 19 18 16 14 13 11
33 33 33 33 33 33 33 33 32 31 31 31 30 29 28 27 26 26 26 25 25 26 27 26 25 24 23 22 22 22 22 22 21 20 20 19 18 17 16 15 12 9
33 33 32 32 33 34 34 33 31 31 32 31 30 29 28 27 26 26 26 25 25 26 26 26 24 22 22 23 23 23 22 21 21 21 20 19 18 17 16 14 11 8
33 33 32 33 34 34 34 33 31 31 31 30 30 29 29 27 26 26 26 24 24 26 26 25 24 22 23 24 23 22 20 20 20 20 18 18 17 17 16 14 10 8
33 33 32 32 33 33 33 32 31 31 31 30 30 30 30 28 26 26 27 24 23 25 26 26 25 23 24 25 23 20 19 19 18 18 17 17 17 16 15 13 11 9
34 33 32 31 32 32 32 32 31 31 31 30 30 30 30 28 26 26 27 25 24 26 28 27 26 25 26 26 23 22 22 21 18 17 17 16 15 15 14 14 13 11
35 34 32 31 32 31 32 32 31 31 31 30 30 30 29 28 26 26 26 27 26 28 29 29 28 28 28 28 27 26 25 23 20 20 19 17 15 15 14 14 13 11
35 35 33 31 31 31 31 31 31 31 31 30 30 30 29 29 28 27 27 28 27 28 30 30 30 30 29 29 27 27 27 26 22 22 24 21 19 19 18 15 14 14
34 35 33 32 32 31 31 31 30 30 30 30 30 30 29 28 28 28 27 27 28 28 28 28 31 32 30 28 27 26 28 28 24 24 25 22 20 22 21 18 17 18
33 32 32 32 32 31 30 31 30 29 29 29 29 29 29 29 29 29 28 27 28 28 26 27 30 32 30 28 26 26 29 30 27 26 26 22 19 20 20 20 21 21
Wind_Direction
181 180 178 178 179 179 181 183 182 179 179 179 177 174 170 167 164 164 165 165 163 157 153 150 148 150 152 153 155 152 149 148 144 144 143 137 134 133 129 128 129 127
182 182 181 181 182 183 185 186 184 181 180 179 178 174 169 167 166 166 166 165 162 157 155 154 152 156 157 156 156 152 149 146 142 144 142 136 134 132 129 128 128 128
183 183 183 182 181 181 182 184 184 183 180 179 180 177 173 171 169 169 169 166 162 159 157 157 157 160 160 158 157 153 150 146 143 144 141 135 134 131 126 125 124 124
182 182 182 180 179 179 179 179 181 182 181 181 181 178 175 173 170 169 169 168 164 160 160 161 161 163 162 160 158 152 148 146 143 144 140 134 133 130 127 126 122 119
182 181 180 178 178 179 179 179 180 181 180 180 179 177 174 171 170 170 169 169 166 162 162 164 165 165 163 161 159 153 149 145 142 145 141 135 134 134 133 133 127 119
181 180 179 178 179 180 181 180 180 181 180 179 176 174 173 171 171 172 170 170 168 165 166 166 165 166 165 163 161 157 153 148 147 149 145 139 139 137 133 131 126 119
180 180 179 178 179 180 180 179 179 181 180 179 176 174 174 174 174 174 173 171 168 168 168 168 167 167 167 166 163 158 155 153 153 153 147 142 141 137 134 133 132 129
179 179 179 178 178 178 177 176 178 179 178 177 175 175 177 177 176 176 175 173 171 171 171 170 170 169 169 169 165 159 157 155 155 154 149 145 142 141 141 142 145 144
177 177 177 176 176 175 174 173 175 175 176 176 174 175 178 178 178 177 177 176 175 174 174 172 172 173 172 171 167 163 159 155 156 156 152 148 146 145 146 148 149 151
174 175 175 174 173 172 172 172 172 171 173 175 174 175 177 178 180 180 179 179 178 177 176 174 174 173 172 170 168 165 160 156 158 160 157 154 153 153 154 156 154 152
173 173 173 173 172 171 172 173 172 172 174 177 178 177 178 179 181 181 180 180 179 178 176 176 176 172 169 168 168 165 160 160 164 164 160 159 160 161 161 162 158 152
174 173 172 173 172 172 172 173 175 178 180 183 184 180 179 180 180 180 181 180 179 180 178 177 176 172 170 171 168 164 162 166 168 165 163 164 163 163 164 165 161 156
174 173 172 173 173 173 172 173 179 184 184 184 184 180 178 180 179 180 181 181 181 180 180 179 176 174 174 174 169 167 168 170 168 164 165 166 164 163 165 167 167 167
173 173 173 173 172 172 172 175 180 183 183 182 181 179 179 179 179 180 181 182 182 182 181 181 178 176 178 175 171 171 173 172 168 167 168 167 165 166 169 174 177 179
171 171 173 173 171 169 171 177 181 180 181 181 179 179 180 180 180 181 181 181 183 183 183 182 181 180 181 178 174 174 175 172 170 172 172 169 166 168 174 180 186 189
169 169 171 172 171 170 173 178 181 181 181 180 179 179 179 179 181 182 182 182 183 183 183 183 183 183 183 181 178 177 175 173 173 174 173 171 170 171 176 185 191 195
168 169 171 172 171 172 177 181 181 181 180 179 179 180 179 179 181 183 183 184 185 185 185 185 184 184 183 182 180 179 178 176 176 175 174 176 176 175 180 187 191 197
168 170 170 171 172 174 179 182 181 181 180 179 179 179 178 179 183 185 185 186 189 188 186 185 184 184 183 182 181 182 182 180 179 177 178 179 179 180 186 188 190 196
169 170 170 171 174 177 180 181 182 181 180 179 179 179 178 180 184 185 185 189 191 189 185 184 183 183 183 182 184 185 183 183 182 180 181 181 180 184 190 190 193 196
170 171 171 173 175 178 180 181 181 181 180 180 180 179 179 181 185 186 186 190 191 187 183 182 181 183 185 184 184 183 182 183 183 182 183 184 184 189 194 197 200 197
171 172 173 175 176 178 180 182 181 180 180 180 180 180 181 183 186 186 186 189 190 186 183 181 182 185 186 184 180 179 181 183 182 183 186 187 188 192 198 205 205 195
171 172 173 175 177 178 180 182 182 181 180 181 181 181 182 184 186 187 188 189 189 187 184 183 184 185 185 183 181 182 183 180 179 184 187 190 194 196 203 211 207 194
171 172 174 175 176 179 182 183 183 181 180 181 181 181 182 184 186 187 188 190 189 188 188 185 183 184 187 188 189 189 185 180 179 182 184 189 195 194 196 200 199 197
170 172 175 176 178 182 184 185 183 182 181 182 182 182 183 185 187 188 189 191 190 189 191 188 184 184 189 191 191 193 191 186 182 181 182 186 190 186 183 186 195 210
172 174 176 179 182 185 187 186 184 182 182 183 184 184 184 185 189 190 189 190 191 192 193 192 187 186 191 194 193 195 198 195 189 184 183 186 187 187 190 195 205 218
174 175 180 183 185 186 187 186 185 182 181 182 182 184 186 187 190 191 189 187 190 194 195 195 192 188 192 198 198 199 203 202 196 191 189 189 189 192 197 201 207 217